Location: Mountain Lakes
(44.1215°N, 71.9554°W)
Time: 02:48:48
(UTC+00:00)

Meteor 1-25 Rocket - Pass Details

Date: 08 September 2024
Orbit: 837 x 889 km, 81.2° (Epoch: 11 October)

Event Time Altitude Azimuth Distance (km) Brightness Sun altitude
Rises 23:33:43 0° 192° (SSW) 3,447 7.4 -5.0°
Reaches altitude 10° 23:36:09 10° 193° (SSW) 2,505 6.7 -5.4°
Maximum altitude 23:41:51 80° 281° (W) 878 4.5 -6.4°
Drops below altitude 10° 23:47:31 10° 8° (N) 2,488 6.7 -7.4°
Sets 23:49:56 0° 10° (N) 3,421 7.4 -7.8°
